This is the latest recevied weather packets stored in our database for station/object EB2BAG-11. If no packets are shown the sender has not sent any weather packets the latest 10 day(s).
| Time | Temp. | Humidity | Pressure | Rain* | Wind** | Luminosity | Snow |
|---|---|---|---|---|---|---|---|
| 1777547733 | 24.44° C | 53% | 1017.4 hPa | - | - | - | - |
| 1777546532 | 24.44° C | 51% | 1017.3 hPa | - | - | - | - |
| 1777545332 | 23.89° C | 55% | 1017.3 hPa | - | - | - | - |
| 1777544132 | 22.78° C | 52% | 1017.4 hPa | - | - | - | - |
| 1777542932 | 22.78° C | 55% | 1017.4 hPa | - | - | - | - |
| 1777541732 | 20.56° C | 58% | 1017.3 hPa | - | - | - | - |
| 1777540532 | 21.11° C | 65% | 1017.3 hPa | - | - | - | - |
| 1777539332 | 19.44° C | 71% | 1017.2 hPa | - | - | - | - |
| 1777538132 | 17.22° C | 80% | 1016.9 hPa | - | - | - | - |
| 1777536932 | 17.78° C | 76% | 1016.9 hPa | - | - | - | - |
| 1777535732 | 18.33° C | 62% | 1016.8 hPa | - | - | - | - |
| 1777534532 | 18.89° C | 70% | 1016 hPa | - | - | - | - |
| 1777533332 | 20° C | 66% | 1015.2 hPa | - | - | - | - |
| 1777532131 | 18.89° C | 62% | 1015 hPa | - | - | - | - |
| 1777530931 | 18.33° C | 62% | 1015 hPa | - | - | - | - |
| 1777529731 | 18.33° C | 61% | 1014.6 hPa | - | - | - | - |
| 1777528531 | 18.33° C | 61% | 1014.5 hPa | - | - | - | - |
| 1777527331 | 18.33° C | 60% | 1014 hPa | - | - | - | - |
| 1777526131 | 18.89° C | 60% | 1014.3 hPa | - | - | - | - |
| 1777524931 | 18.33° C | 60% | 1014 hPa | - | - | - | - |
| 1777523731 | 17.78° C | 65% | 1013.8 hPa | - | - | - | - |
| 1777522531 | 17.22° C | 75% | 1013.9 hPa | - | - | - | - |
| 1777521331 | 17.78° C | 65% | 1014.1 hPa | - | - | - | - |
| 1777520130 | 17.22° C | 71% | 1013.6 hPa | - | - | - | - |
| 1777518930 | 17.22° C | 75% | 1013 hPa | - | - | - | - |
* Rain since midnight (hover to see other rain measurements)
** Current wind speed in m/s (hover to see current wind gust speed)